Home > Weather > Reston > Past weeks

Flag for USA Past Weather in Reston, Virginia, USA — Yesterday and Last 2 Weeks

Now
73 °F

Passing clouds.


Feels Like: 77 °F
Forecast: 56 / 81 °F
Wind: 13 mph from Northwest

Location: Washington-Dulles International Airport

Current Time: May 24, 2016 at 11:46:06 AM

Latest Report: May 24, 2016 at 10:52 AM


Visibility: 10 mi

Pressure: 30.02 "Hg

Humidity: 48%

Dew Point: 52 °F

Location of RestonLocation

Past Weather in Reston — Graph

°F

Reston Temperature Yesterday

Maximum temperature yesterday: 73 °F (at 2:52 PM)
Minimum temperature yesterday: 55 °F (at 3:52 AM)
Average temperature yesterday: 61 °F

High & Low Weather Summary for the Past Weeks

 TemperatureHumidityPressure
High77 °F (May 13, 5:52 PM)100% (May 13, 6:52 AM)30.28 "Hg (May 13, 6:52 AM)
Low37 °F (May 16, 1:52 AM)28% (May 16, 4:52 PM)29.69 "Hg (May 14, 4:52 PM)
Average58 °F74%30.05 "Hg
* Reported May 9 9:52 AM — May 24 9:52 AM, Reston, Weather by CustomWeather, © 2016

Note: Actual official high and low records may vary slightly from our data, if they occured in-between our weather recording intervals... More about our weather records

Advertising

Reston Weather History for the Previous 24 Hours

Scroll right to see more
 ConditionsComfort  
Time TempWeatherWind HumidityBarometerVisibility
9:52 AM
Tue, May 24
70 °FPassing clouds.14 mph55%30.02 "Hg10 mi
8:52 AM67 °FPassing clouds.13 mph66%30.02 "Hg10 mi
7:52 AM60 °FPassing clouds.No wind83%30.00 "Hg10 mi
6:52 AM56 °FPassing clouds.No wind90%29.98 "Hg10 mi
5:52 AM53 °FPassing clouds.No wind96%29.96 "Hg10 mi
4:52 AM55 °FPassing clouds.No wind93%29.95 "Hg10 mi
3:52 AM58 °FPassing clouds.No wind90%29.94 "Hg10 mi
2:52 AM57 °FLight rain. Mostly cloudy.9 mph93%29.93 "Hg10 mi
1:52 AM57 °FPassing clouds.7 mph93%29.97 "Hg10 mi
12:52 AM54 °FPassing clouds.5 mph100%29.95 "Hg7 mi
11:52 PM
Mon, May 23
56 °FPassing clouds.3 mph97%29.96 "Hg8 mi
10:52 PM57 °FPassing clouds.No wind93%29.98 "Hg7 mi
9:52 PM60 °FPassing clouds.6 mph90%29.98 "Hg10 mi
8:52 PM59 °FBroken clouds.8 mph93%29.94 "Hg10 mi
7:52 PM60 °FBroken clouds.5 mph90%29.96 "Hg10 mi
6:52 PM61 °FPartly sunny.No wind90%29.95 "Hg10 mi
5:52 PM59 °FThunderstorms. Fog.10 mph87%29.91 "Hg5 mi
5:02 PM64 °FThunderstorms. Partly sunny.7 mph78%29.90 "Hg10 mi
3:52 PM73 °FPartly sunny.13 mph51%29.90 "Hg10 mi
2:52 PM73 °FBroken clouds.10 mph50%29.92 "Hg10 mi
1:52 PM70 °FBroken clouds.9 mph53%29.94 "Hg10 mi
12:52 PM71 °FPartly sunny.3 mph57%29.95 "Hg10 mi
11:52 AM68 °FBroken clouds.7 mph65%29.97 "Hg10 mi
Weather by CustomWeather, © 2016

See weather overviewHow to use our weather pages